sat.trackr.live / text

‹ back to catalog

STARLINK-4197

NORAD 52849 · 2022-062V

PAYLOAD ACTIVE UNKNOWN

§ Identity

Operator
Country
US
Launch date
2022-06-17
Launch site
AFETR
Launch vehicle
Mass (kg)
RCS (m²)

Purposes: comms

External: N2YO · Heavens-Above · Gunter

§ Orbital elements

Epoch: 2026-09-20T03:32:04.559136Z

Period
93.79 min
Inclination
53.1599°
Eccentricity
0.0001319
Mean motion
15.35393852 rev/d
Perigee alt
458.8 km
Apogee alt
460.7 km
Semi-major
6,837.9 km
B*
-9.4381e-6
RAAN
219.5626°
Arg perigee
79.8396°
Mean anomaly
280.2756°
Rev number
23,543

§ Raw data

STARLINK-41971 52849U 22062V   26263.14727499 -.00000710  00000+0 -94381-5 0  99912 52849  53.1599 219.5626 0001319  79.8396 280.2756 15.35393852235430

JSON: /api/v1/satellites/52849 · /tle

For live sub-satellite position, see the globe view (requires WebGL).

§ Visibility from observer

Set your observer location to see the next 7 days of passes ≥ 10°. The values pass through the URL so the page stays shareable.

No JS? Fill the form by hand. The geolocation button needs JavaScript.